Air Force Academy, CO

6:29 PM MST on November 13, 2019 (GMT -0700)
Usaf Academy

Weather History for KAFF - May, 2019

Change the Weather History Date:

Friday, May 24, 2019

  Actual Average Record
Temperature  
Mean Temperature 50 °F -  
Max Temperature 67 °F 68 °F 83 °F (2013)
Min Temperature 32 °F 42 °F 30 °F (2007)
Degree Days  
Heating Degree Days 15    
Moisture  
Dew Point 22 °F    
Average Humidity 35    
Maximum Humidity 99    
Minimum Humidity 13    
Precipitation  
Precipitation 0.00 in - - ()
Sea Level Pressure  
Sea Level Pressure 29.86 in    
Wind  
Wind Speed 8 mph (SW)    
Max Wind Speed 20 mph    
Max Gust Speed 28 mph    
Visibility 10 miles    
Events      
Averages and records for this station are not official NWS values.
T = Trace of Precipitation, MM = Missing Value Source: NWS Daily Summary

Daily Weather History Graph

Daily Weather History Graph

Search for Another Location

Airport or City:

Astronomy

May. 24, 2019 Rise Set
Actual Time 5:39 AM MDT 8:12 PM MDT
Civil Twilight 5:08 AM MDT 8:43 PM MDT
Nautical Twilight 4:30 AM MDT 9:22 PM MDT
Astronomical Twilight 3:48 AM MDT 10:05 PM MDT
Moon 12:39 AM MDT (5/24) 10:42 AM MDT (5/24)
Length of Visible Light 15h 34m
Length of Day
14h 33m
Waning Gibbous, 68% of the Moon is Illuminated
May 24
Waning Gibbous
May 26
Last Quarter
Jun 3
New
Jun 10
First Quarter
Jun 17
Full

Hourly Weather History & Observations

Time (MDT) Temp. Windchill Dew Point Humidity Pressure Visibility Wind Dir Wind Speed Gust Speed Precip Events Conditions
12:58 AM 34.0 °F - 33.8 °F 99% 30.02 in 10.0 mi Calm Calm - N/A   Clear
1:58 AM 34.3 °F 28.4 °F 30.4 °F 85% 29.99 in 10.0 mi North 6.9 mph - N/A   Clear
2:58 AM 39.6 °F 34.0 °F 21.6 °F 49% 29.94 in 10.0 mi WNW 8.1 mph - N/A   Clear
3:58 AM 32.9 °F 29.8 °F 28.9 °F 85% 29.96 in 10.0 mi NE 3.5 mph - N/A   Clear
4:58 AM 34.0 °F 24.6 °F 21.6 °F 60% 29.95 in 10.0 mi North 13.8 mph - N/A   Clear
5:58 AM 39.7 °F 31.9 °F 17.4 °F 41% 29.94 in 10.0 mi WNW 13.8 mph - N/A   Clear
6:58 AM 37.6 °F 31.6 °F 23.7 °F 57% 29.99 in 10.0 mi SW 8.1 mph - N/A   Clear
7:58 AM 44.8 °F - 22.5 °F 41% 29.96 in 10.0 mi Calm Calm - N/A   Clear
8:58 AM 50.0 °F - 23.4 °F 35% 29.93 in 10.0 mi SE 9.2 mph - N/A   Clear
9:58 AM 54.3 °F - 23.5 °F 30% 29.91 in 10.0 mi SE 8.1 mph - N/A   Clear
10:58 AM 57.9 °F - 23.2 °F 26% 29.89 in 10.0 mi SE 8.1 mph - N/A   Clear
11:51 AM 60.8 °F - 21.2 °F 22% 29.86 in 10.0 mi ESE 13.8 mph 24.2 mph N/A   Clear
11:58 AM 60.8 °F - 21.7 °F 22% 29.86 in 10.0 mi South 9.2 mph 24.2 mph N/A   Clear
12:08 PM 62.6 °F - 21.2 °F 20% 29.86 in 10.0 mi South 15.0 mph 19.6 mph N/A   Clear
12:58 PM 63.3 °F - 21.6 °F 20% 29.86 in 10.0 mi South 19.6 mph 24.2 mph N/A   Partly Cloudy
1:44 PM 66.2 °F - 19.4 °F 17% 29.81 in 10.0 mi West 13.8 mph 27.6 mph N/A   Clear
1:58 PM 65.8 °F - 18.3 °F 16% 29.81 in 10.0 mi West 18.4 mph - N/A   Clear
2:58 PM 66.2 °F - 21.4 °F 18% 29.78 in 10.0 mi SE 8.1 mph 18.4 mph N/A   Clear
3:56 PM 66.2 °F - 19.4 °F 17% 29.79 in 10.0 mi SW 15.0 mph 25.3 mph N/A   Scattered Clouds
3:58 PM 65.8 °F - 19.8 °F 17% 29.79 in 10.0 mi SW 15.0 mph 25.3 mph N/A   Scattered Clouds
4:58 PM 67.6 °F - 19.8 °F 16% 29.77 in 10.0 mi South 10.4 mph - N/A   Clear
5:03 PM 68.0 °F - 15.8 °F 13% 29.77 in 10.0 mi SSW 16.1 mph 20.7 mph N/A   Clear
5:58 PM 66.7 °F - 16.0 °F 14% 29.75 in 10.0 mi SW 11.5 mph - N/A   Clear
6:58 PM 66.7 °F - 16.0 °F 14% 29.77 in 10.0 mi SW 3.5 mph - N/A   Mostly Cloudy
7:58 PM 62.6 °F - 18.5 °F 18% 29.78 in 10.0 mi NNE 4.6 mph - N/A   Mostly Cloudy
8:58 PM 55.9 °F - 25.7 °F 31% 29.80 in 10.0 mi NNW 4.6 mph - N/A   Clear
9:58 PM 55.9 °F - 22.5 °F 27% 29.81 in 10.0 mi North 6.9 mph - N/A   Clear
10:58 PM 47.5 °F - 27.7 °F 46% 29.85 in 10.0 mi NNE 8.1 mph - N/A   Clear
11:58 PM 43.5 °F 39.4 °F 28.9 °F 56% 29.88 in 10.0 mi NNW 6.9 mph - N/A   Clear